CW1238 Weather Reports


time (UTC)temp
F
wind
direction
speed
knots
gust
knots
rain 1hr
in
rain 24hr
in
rain mn
in
humidity
%
barometer
mb
20260504050328 50 171 0.0 0.0 0.00 0.00 0.00 59 1042.6
20260504045826 51 190 0.0 0.0 0.00 0.00 0.00 59 1042.5
20260504045320 51 186 0.0 0.0 0.00 0.00 0.00 58 1042.5
20260504044818 51 177 0.0 0.0 0.00 0.00 0.00 58 1042.7
20260504044315 52 180 0.0 0.0 0.00 0.00 0.00 57 1042.8
20260504043812 51 167 0.0 0.0 0.00 0.00 0.00 57 1042.8
20260504043309 50 177 0.0 0.0 0.00 0.00 0.00 59 1042.7
20260504042807 50 177 0.0 0.0 0.00 0.00 0.00 60 1042.8
20260504042304 50 175 0.0 0.0 0.00 0.00 0.00 60 1042.9
20260504041759 50 182 0.0 0.0 0.00 0.00 0.00 62 1042.9
20260504041255 50 181 0.0 0.0 0.00 0.00 0.00 62 1043.0
20260504040752 51 182 0.0 0.0 0.00 0.00 0.00 62 1043.3
20260504040249 51 181 0.0 0.0 0.00 0.00 0.00 58 1043.6
20260504035745 52 172 0.0 0.0 0.00 0.00 0.00 56 1043.4
20260504035242 52 184 0.0 0.0 0.00 0.00 0.00 56 1043.6
20260504034740 52 174 0.0 0.0 0.00 0.00 0.00 56 1043.8
20260504034237 50 175 0.0 0.0 0.00 0.00 0.00 59 1043.6
20260504033734 51 175 0.0 0.0 0.00 0.00 0.00 59 1043.7
20260504033232 52 175 0.0 0.0 0.00 0.00 0.00 56 1043.8
20260504032728 53 175 0.0 0.0 0.00 0.00 0.00 53 1043.6
20260504032226 53 181 0.0 0.0 0.00 0.00 0.00 52 1043.8
20260504031722 54 184 0.0 0.0 0.00 0.00 0.00 52 1044.1
20260504031220 53 183 0.0 0.0 0.00 0.00 0.00 52 1043.9
20260504030715 54 175 0.0 0.0 0.00 0.00 0.00 51 1043.8
20260504030213 54 178 0.0 0.0 0.00 0.00 0.00 51 1044.0
20260504025709 53 176 0.0 0.0 0.00 0.00 0.00 53 1044.0
20260504025206 54 177 0.0 0.0 0.00 0.00 0.00 52 1044.0
20260504024703 54 177 0.0 0.0 0.00 0.00 0.00 51 1043.7
20260504024200 56 177 0.0 0.0 0.00 0.00 0.00 51 1043.8
20260504023656 55 180 0.0 0.0 0.00 0.00 0.00 49 1043.9
20260504023152 57 175 0.0 0.0 0.00 0.00 0.00 46 1044.0
20260504022649 58 175 0.0 0.0 0.00 0.00 0.00 45 1043.9
20260504022144 58 164 0.0 0.0 0.00 0.00 0.00 44 1043.8
20260504021643 59 174 0.0 0.9 0.00 0.00 0.00 44 1043.9
20260504021139 60 172 0.0 0.9 0.00 0.00 0.00 42 1043.8
20260504020636 60 169 0.9 0.9 0.00 0.00 0.00 41 1043.8
20260504020132 59 178 0.0 0.0 0.00 0.00 0.00 42 1043.9
20260504015629 60 175 0.0 0.0 0.00 0.00 0.00 40 1044.0
20260504015125 61 182 0.0 0.0 0.00 0.00 0.00 38 1043.8
20260504014621 62 185 0.0 0.9 0.00 0.00 0.00 37 1043.8
20260504014119 62 218 0.9 0.9 0.00 0.00 0.00 38 1043.9
20260504013616 63 180 0.0 0.9 0.00 0.00 0.00 36 1043.9
20260504013113 63 189 0.0 0.9 0.00 0.00 0.00 37 1043.9
20260504012610 63 196 0.9 1.7 0.00 0.00 0.00 35 1043.9
20260504012108 64 205 0.9 1.7 0.00 0.00 0.00 35 1043.8
20260504011605 65 268 0.9 1.7 0.00 0.00 0.00 34 1043.8
20260504011101 66 201 1.7 2.6 0.00 0.00 0.00 34 1043.8
20260504010556 66 258 0.9 2.6 0.00 0.00 0.00 33 1043.8
20260504010053 66 223 1.7 2.6 0.00 0.00 0.00 33 1043.8
20260504005549 66 222 1.7 2.6 0.00 0.00 0.00 32 1043.7
20260504005047 67 254 1.7 3.5 0.00 0.00 0.00 33 1043.8
20260504004545 67 273 1.7 5.2 0.00 0.00 0.00 31 1043.8
20260504004042 68 268 2.6 3.5 0.00 0.00 0.00 32 1043.8
20260504003537 68 259 1.7 1.7 0.00 0.00 0.00 31 1044.0
20260504003034 68 240 1.7 3.5 0.00 0.00 0.00 31 1043.9
20260504002531 68 253 1.7 3.5 0.00 0.00 0.00 31 1043.9
20260504002029 69 278 4.3 7.0 0.00 0.00 0.00 30 1043.9
20260504001527 69 285 3.5 5.2 0.00 0.00 0.00 32 1043.9
20260504001022 69 288 3.5 5.2 0.00 0.00 0.00 32 1043.9
20260504000520 69 256 2.6 3.5 0.00 0.00 0.00 31 1044.0
20260504000017 69 259 0.9 6.1 0.00 0.00 0.00 32 1043.9
20260503235515 70 218 2.6 5.2 0.00 0.00 0.00 30 1043.9
20260503235012 70 313 3.5 6.1 0.00 0.00 0.00 30 1043.8
20260503234509 70 345 1.7 3.5 0.00 0.00 0.00 32 1043.9
20260503234008 70 284 4.3 7.0 0.00 0.00 0.00 31 1043.9
20260503233504 71 349 0.9 2.6 0.00 0.00 0.00 31 1043.8
20260503233000 71 253 1.7 2.6 0.00 0.00 0.00 31 1043.5
20260503232457 70 261 2.6 3.5 0.00 0.00 0.00 32 1043.7
20260503231954 70 266 3.5 3.5 0.00 0.00 0.00 30 1043.8
20260503231452 70 254 4.3 6.1 0.00 0.00 0.00 30 1043.8
20260503230948 71 253 4.3 6.1 0.00 0.00 0.00 31 1043.9
20260503230445 71 292 3.5 8.7 0.00 0.00 0.00 29 1043.8
20260503225943 71 271 1.7 2.6 0.00 0.00 0.00 31 1043.7
20260503225439 72 301 3.5 5.2 0.00 0.00 0.00 29 1043.7
20260503224935 72 224 1.7 5.2 0.00 0.00 0.00 29 1043.6
20260503224432 71 313 4.3 7.8 0.00 0.00 0.00 27 1043.7
20260503223930 72 282 6.1 8.7 0.00 0.00 0.00 27 1043.8
20260503223428 72 264 3.5 5.2 0.00 0.00 0.00 27 1043.5
20260503222922 72 270 1.7 3.5 0.00 0.00 0.00 28 1043.6
20260503222422 72 313 2.6 6.1 0.00 0.00 0.00 27 1043.6
20260503221920 72 25 1.7 7.0 0.00 0.00 0.00 30 1043.6
20260503221417 72 324 3.5 7.8 0.00 0.00 0.00 28 1043.5
20260503220914 72 203 1.7 5.2 0.00 0.00 0.00 29 1043.7
20260503220410 72 316 2.6 5.2 0.00 0.00 0.00 29 1043.7
20260503215908 73 274 4.3 6.1 0.00 0.00 0.00 27 1043.6
20260503215404 73 327 3.5 7.8 0.00 0.00 0.00 30 1043.7
20260503214902 72 296 3.5 7.0 0.00 0.00 0.00 27 1043.6
20260503214359 71 290 2.6 7.0 0.00 0.00 0.00 28 1043.8
20260503213856 72 304 3.5 6.1 0.00 0.00 0.00 27 1043.9
20260503213354 72 316 3.5 8.7 0.00 0.00 0.00 28 1043.9
20260503212850 72 335 3.5 6.1 0.00 0.00 0.00 29 1043.9
20260503212349 72 309 3.5 6.1 0.00 0.00 0.00 28 1044.0
20260503211845 72 45 3.5 5.2 0.00 0.00 0.00 30 1043.9
20260503211342 72 287 5.2 8.7 0.00 0.00 0.00 30 1044.0
20260503210837 72 287 2.6 8.7 0.00 0.00 0.00 29 1043.9
20260503210335 73 213 1.7 2.6 0.00 0.00 0.00 30 1044.0
20260503205830 72 123 2.6 6.1 0.00 0.00 0.00 29 1043.7
20260503205327 72 267 4.3 7.8 0.00 0.00 0.00 28 1044.0
20260503204823 72 294 1.7 2.6 0.00 0.00 0.00 32 1044.0
20260503204321 72 206 2.6 5.2 0.00 0.00 0.00 30 1044.0
20260503203818 73 2 5.2 7.0 0.00 0.00 0.00 32 1044.1
20260503203315 72 315 2.6 3.5 0.00 0.00 0.00 32 1044.0
20260503202812 72 297 7.0 8.7 0.00 0.00 0.00 31 1043.9
20260503202310 72 358 1.7 6.1 0.00 0.00 0.00 32 1044.1
20260503201808 72 322 4.3 8.7 0.00 0.00 0.00 30 1044.3
20260503201305 72 269 7.0 7.8 0.00 0.00 0.00 28 1044.2
20260503200802 71 309 2.6 9.6 0.00 0.00 0.00 34 1044.2
20260503200258 71 300 7.0 9.6 0.00 0.00 0.00 34 1044.2
20260503195755 71 281 4.3 7.8 0.00 0.00 0.00 32 1044.2
20260503195252 72 284 4.3 8.7 0.00 0.00 0.00 31 1044.3
20260503194749 72 20 1.7 3.5 0.00 0.00 0.00 32 1044.3
20260503194245 72 27 2.6 3.5 0.00 0.00 0.00 31 1044.4
20260503193741 71 85 0.9 3.5 0.00 0.00 0.00 30 1044.4
20260503193237 72 330 2.6 7.8 0.00 0.00 0.00 31 1044.5
20260503192733 73 32 1.7 5.2 0.00 0.00 0.00 29 1044.4
20260503192228 71 294 0.9 2.6 0.00 0.00 0.00 32 1044.4
20260503191726 72 353 7.0 8.7 0.00 0.00 0.00 28 1044.5
20260503191222 72 324 2.6 5.2 0.00 0.00 0.00 30 1044.6
20260503190720 71 345 2.6 5.2 0.00 0.00 0.00 30 1044.6
20260503190216 71 25 3.5 7.0 0.00 0.00 0.00 31 1044.6
20260503185714 71 195 2.6 6.1 0.00 0.00 0.00 33 1044.6
20260503185209 71 320 3.5 7.0 0.00 0.00 0.00 33 1044.3
20260503184703 71 343 3.5 6.1 0.00 0.00 0.00 35 1044.4
20260503184200 70 18 3.5 6.1 0.00 0.00 0.00 35 1044.4
20260503183656 71 330 1.7 7.0 0.00 0.00 0.00 34 1044.5
20260503183154 71 17 4.3 6.1 0.00 0.00 0.00 34 1044.5
20260503182652 71 278 7.0 9.6 0.00 0.00 0.00 36 1044.6
20260503182150 70 334 5.2 7.8 0.00 0.00 0.00 34 1044.7
20260503181646 70 318 3.5 7.8 0.00 0.00 0.00 36 1044.5
20260503181144 69 304 1.7 5.2 0.00 0.00 0.00 37 1044.6
20260503180640 69 258 3.5 5.2 0.00 0.00 0.00 39 1044.5
20260503180138 70 349 1.7 6.1 0.00 0.00 0.00 37 1044.8
20260503175635 69 189 3.5 7.0 0.00 0.00 0.00 40 1044.8
20260503175132 69 336 4.3 9.6 0.00 0.00 0.00 37 1044.8
20260503174629 69 310 3.5 5.2 0.00 0.00 0.00 39 1044.8
20260503174126 68 347 3.5 6.1 0.00 0.00 0.00 40 1044.6
20260503173621 69 331 4.3 6.1 0.00 0.00 0.00 41 1044.9
20260503173117 68 348 3.5 6.1 0.00 0.00 0.00 39 1044.7
20260503172614 68 307 5.2 7.8 0.00 0.00 0.00 40 1044.7
20260503172112 68 349 2.6 6.1 0.00 0.00 0.00 40 1044.8
20260503171608 68 320 3.5 8.7 0.00 0.00 0.00 41 1044.8
20260503171106 68 266 3.5 5.2 0.00 0.00 0.00 42 1044.7
20260503170603 67 337 3.5 8.7 0.00 0.00 0.00 42 1044.7
20260503150954 62 325 3.5 5.2 0.00 0.00 0.00 50 1044.6
20260503150451 61 355 3.5 6.1 0.00 0.00 0.00 48 1044.4
20260503131343 54 256 4.3 7.0 0.00 0.00 0.00 53 1044.7
20260503130841 54 160 2.6 5.2 0.00 0.00 0.00 53 1044.9
20260503130338 54 234 6.1 9.6 0.00 0.00 0.00 54 1044.9
20260503110732 50 186 2.6 5.2 0.00 0.00 0.00 56 1045.0
20260503110229 50 240 2.6 8.7 0.00 0.00 0.00 55 1045.0
20260503100155 53 162 4.3 11.3 0.00 0.00 0.00 52 1045.3
20260503090114 54 193 4.3 7.0 0.00 0.00 0.00 54 1046.8
20260503081550 54 182 1.7 5.2 0.00 0.00 0.00 52 1048.0
20260503081048 54 211 3.5 8.7 0.00 0.00 0.00 48 1048.1
20260503080544 54 185 3.5 7.0 0.00 0.00 0.00 50 1048.1
20260503072517 55 159 2.6 5.2 0.00 0.00 0.00 46 1049.3
20260503072014 55 238 3.5 7.8 0.00 0.00 0.00 45 1049.3
20260503071511 55 215 3.5 6.1 0.00 0.00 0.00 45 1049.4
20260503071008 56 214 7.0 8.7 0.00 0.00 0.00 43 1049.2
20260503070504 57 206 3.5 7.0 0.00 0.00 0.00 42 1048.9